QPF
0.00 0.00 0.00 0.00 0.00 0.00 0.00 0.00 0.00 0.00 0.00 0.00 0.00 0.00 0.00 0.00 0.00 0.00 0.00 0.00 0.00 0.00 0.00 0.00 0.00 0.00 0.00 0.00 0.00 0.00 0.00 0.00 0.00 0.00 0.00 0.00 0.00 0.00 0.00 0.00 0.00 0.00 0.00
0.00 0.00 0.00 0.00 0.00 0.00 0.00 0.00 0.00 0.00 0.00 0.00 0.00 0.00 0.00 0.00 0.00 0.00 0.00 0.00 0.00 0.00 0.00 0.00 0.00 0.00 0.00 0.00 0.00 0.00 0.00 0.00 0.00 0.00 0.00 0.00 0.00 0.00 0.00 0.00 0.00 0.00 0.00
0.00 0.00 0.00 0.00 0.00 0.00 0.00 0.00 0.00 0.00 0.00 0.00 0.00 0.00 0.00 0.00 0.00 0.00 0.00 0.00 0.00 0.00 0.00 0.00 0.00 0.00 0.00 0.00 0.00 0.00 0.00 0.00 0.00 0.00 0.00 0.00 0.00 0.00 0.00 0.00 0.00 0.00 0.00
0.00 0.00 0.00 0.00 0.00 0.00 0.00 0.00 0.00 0.00 0.00 0.00 0.00 0.00 0.00 0.00 0.00 0.00 0.00 0.00 0.00 0.00 0.00 0.00 0.00 0.00 0.00 0.00 0.00 0.00 0.00 0.00 0.00 0.00 0.00 0.00 0.00 0.00 0.00 0.00 0.00 0.00 0.00
0.00 0.00 0.00 0.00 0.00 0.00 0.00 0.00 0.00 0.00 0.00 0.00 0.00 0.00 0.00 0.00 0.00 0.00 0.00 0.00 0.00 0.00 0.00 0.00 0.00 0.00 0.00 0.00 0.00 0.00 0.00 0.00 0.00 0.00 0.00 0.00 0.00 0.00 0.00 0.00 0.00 0.00 0.00
0.00 0.00 0.00 0.00 0.00 0.00 0.00 0.00 0.00 0.00 0.00 0.00 0.00 0.00 0.00 0.00 0.00 0.00 0.00 0.00 0.00 0.00 0.00 0.00 0.00 0.00 0.00 0.00 0.00 0.00 0.00 0.00 0.00 0.00 0.00 0.00 0.00 0.00 0.00 0.00 0.00 0.00 0.00
0.00 0.00 0.00 0.00 0.00 0.00 0.00 0.00 0.00 0.00 0.00 0.00 0.00 0.00 0.00 0.00 0.00 0.00 0.00 0.00 0.00 0.00 0.00 0.00 0.00 0.00 0.00 0.00 0.00 0.00 0.00 0.00 0.00 0.00 0.00 0.00 0.00 0.00 0.00 0.00 0.00 0.00 0.00
0.00 0.00 0.00 0.00 0.00 0.00 0.00 0.00 0.00 0.00 0.00 0.00 0.00 0.00 0.00 0.00 0.00 0.00 0.00 0.00 0.00 0.00 0.00 0.00 0.00 0.00 0.00 0.00 0.00 0.00 0.00 0.00 0.00 0.00 0.00 0.00 0.00 0.00 0.00 0.00 0.00 0.00 0.00
0.00 0.00 0.00 0.00 0.00 0.00 0.00 0.00 0.00 0.00 0.00 0.00 0.00 0.00 0.00 0.00 0.00 0.00 0.00 0.00 0.00 0.00 0.00 0.00 0.00 0.00 0.00 0.00 0.00 0.00 0.00 0.00 0.00 0.00 0.00 0.00 0.00 0.00 0.00 0.00 0.00 0.00 0.00
0.00 0.00 0.00 0.00 0.00 0.00 0.00 0.00 0.00 0.00 0.00 0.00 0.00 0.00 0.00 0.00 0.00 0.00 0.00 0.00 0.00 0.00 0.00 0.00 0.00 0.00 0.00 0.00 0.00 0.00 0.00 0.00 0.00 0.00 0.00 0.00 0.00 0.00 0.00 0.00 0.00 0.00 0.00
0.01 0.00 0.00 0.00 0.00 0.00 0.00 0.00 0.00 0.00 0.00 0.00 0.00 0.00 0.00 0.00 0.00 0.00 0.00 0.00 0.00 0.00 0.00 0.00 0.00 0.00 0.00 0.00 0.00 0.00 0.00 0.00 0.00 0.00 0.00 0.00 0.00 0.00 0.00 0.00 0.00 0.00 0.00
0.00 0.00 0.00 0.00 0.00 0.00 0.00 0.00 0.00 0.00 0.00 0.00 0.00 0.00 0.00 0.00 0.00 0.00 0.00 0.00 0.00 0.00 0.00 0.00 0.00 0.00 0.00 0.00 0.00 0.00 0.00 0.00 0.00 0.00 0.00 0.00 0.00 0.00 0.00 0.00 0.00 0.00 0.00
0.00 0.00 0.00 0.00 0.00 0.00 0.00 0.00 0.00 0.00 0.00 0.00 0.00 0.00 0.00 0.00 0.00 0.00 0.00 0.00 0.01 0.00 0.00 0.00 0.00 0.00 0.00 0.00 0.00 0.00 0.00 0.00 0.00 0.00 0.00 0.00 0.00 0.00 0.00 0.00 0.00 0.00 0.00
0.00 0.00 0.00 0.00 0.00 0.00 0.00 0.00 0.00 0.00 0.00 0.00 0.00 0.00 0.00 0.00 0.00 0.00 0.00 0.00 0.02 0.00 0.00 0.00 0.00 0.00 0.00 0.00 0.00 0.00 0.00 0.00 0.00 0.00 0.00 0.00 0.00 0.00 0.00 0.00 0.00 0.00 0.00
0.00 0.00 0.00 0.00 0.00 0.00 0.00 0.00 0.00 0.00 0.00 0.00 0.00 0.00 0.00 0.00 0.00 0.00 0.00 0.00 0.02 0.00 0.00 0.00 0.00 0.00 0.00 0.00 0.00 0.00 0.00 0.00 0.00 0.00 0.00 0.00 0.00 0.00 0.00 0.00 0.00 0.00 0.00
0.01 0.02 0.02 0.01 0.01 0.01 0.01 0.00 0.00 0.00 0.00 0.00 0.00 0.00 0.00 0.00 0.00 0.00 0.00 0.00 0.01 0.00 0.00 0.00 0.00 0.00 0.00 0.00 0.00 0.00 0.00 0.00 0.00 0.00 0.00 0.00 0.00 0.00 0.00 0.00 0.00 0.00 0.00
0.02 0.01 0.01 0.03 0.03 0.01 0.02 0.01 0.01 0.01 0.00 0.00 0.00 0.00 0.00 0.00 0.00 0.00 0.00 0.00 0.00 0.00 0.00 0.00 0.00 0.00 0.00 0.00 0.00 0.00 0.00 0.00 0.00 0.00 0.00 0.00 0.00 0.00 0.00 0.00 0.00 0.00 0.00
0.02 0.02 0.07 0.12 0.16 0.05 0.04 0.06 0.09 0.08 0.03 0.00 0.00 0.00 0.00 0.00 0.02 0.00 0.00 0.00 0.00 0.00 0.00 0.00 0.00 0.00 0.00 0.00 0.00 0.00 0.00 0.00 0.00 0.00 0.00 0.00 0.00 0.00 0.00 0.00 0.00 0.00 0.00
0.05 0.05 0.14 0.13 0.10 0.24 0.49 0.52 0.58 0.45 0.17 0.07 0.01 0.00 0.01 0.06 0.07 0.01 0.00 0.00 0.00 0.00 0.00 0.00 0.00 0.00 0.00 0.00 0.00 0.00 0.00 0.00 0.00 0.00 0.00 0.00 0.00 0.00 0.00 0.00 0.00 0.00 0.00
0.10 0.16 0.26 0.28 0.34 0.47 0.68 0.71 0.66 0.77 0.45 0.12 0.05 0.04 0.03 0.04 0.05 0.01 0.00 0.01 0.02 0.00 0.00 0.00 0.00 0.00 0.00 0.00 0.00 0.00 0.00 0.00 0.00 0.00 0.00 0.00 0.00 0.00 0.00 0.00 0.00 0.00 0.00
0.06 0.08 0.11 0.20 0.34 0.84 0.97 1.40 2.24 1.80 1.13 0.39 0.13 0.07 0.05 0.02 0.03 0.01 0.01 0.03 0.02 0.00 0.00 0.00 0.00 0.00 0.00 0.01 0.00 0.00 0.00 0.00 0.00 0.00 0.00 0.00 0.00 0.00 0.00 0.00 0.00 0.00 0.00
0.03 0.03 0.03 0.08 0.12 0.35 0.69 1.00 2.18 2.55 2.22 0.66 0.19 0.08 0.09 0.05 0.07 0.04 0.03 0.02 0.01 0.01 0.00 0.00 0.00 0.01 0.00 0.00 0.01 0.00 0.00 0.00 0.00 0.00 0.00 0.00 0.00 0.00 0.00 0.00 0.00 0.00 0.00
0.01 0.01 0.01 0.03 0.05 0.19 0.62 0.75 0.72 0.65 1.80 0.95 0.25 0.12 0.07 0.06 0.06 0.04 0.02 0.02 0.01 0.01 0.00 0.00 0.00 0.01 0.00 0.00 0.00 0.00 0.00 0.00 0.00 0.00 0.00 0.00 0.00 0.00 0.00 0.00 0.00 0.00 0.00
0.00 0.00 0.00 0.00 0.00 0.01 0.04 0.22 0.79 0.65 0.45 0.27 0.15 0.11 0.08 0.04 0.02 0.01 0.01 0.01 0.01 0.00 0.00 0.00 0.00 0.00 0.00 0.00 0.00 0.00 0.00 0.00 0.00 0.00 0.00 0.00 0.00 0.00 0.00 0.00 0.00 0.00 0.00
0.00 0.00 0.00 0.00 0.00 0.00 0.00 0.02 0.07 0.14 0.16 0.14 0.11 0.09 0.08 0.06 0.03 0.03 0.01 0.01 0.01 0.01 0.01 0.00 0.00 0.00 0.00 0.00 0.00 0.00 0.01 0.00 0.00 0.00 0.00 0.00 0.00 0.00 0.00 0.00 0.00 0.00 0.00
0.00 0.00 0.00 0.00 0.00 0.00 0.00 0.00 0.00 0.01 0.03 0.04 0.05 0.06 0.08 0.05 0.03 0.04 0.03 0.03 0.03 0.02 0.02 0.02 0.00 0.00 0.00 0.00 0.00 0.01 0.02 0.01 0.00 0.00 0.00 0.00 0.00 0.00 0.00 0.00 0.00 0.00 0.00
MSLP
1011.12 1011.68 1012.38 1012.86 1013.26 1013.60 1013.95 1014.16 1014.19 1014.06 1014.06 1014.04 1013.93 1013.91 1014.01 1014.08 1014.24 1014.33 1014.64 1015.02 1015.38 1015.84 1016.04 1016.16 1016.66 1016.82 1017.04 1017.09 1017.02 1017.01 1017.01 1017.12 1018.04 1018.21 1017.85 1017.39 1017.02 1016.91 1016.99 1017.00 1017.03 1016.99 1016.94
1010.35 1011.07 1011.68 1012.24 1012.76 1013.13 1013.42 1013.65 1013.88 1013.90 1013.90 1013.88 1013.84 1013.83 1013.94 1014.02 1014.19 1014.46 1014.86 1015.27 1015.75 1016.29 1016.61 1016.78 1017.27 1017.36 1017.74 1017.68 1017.53 1017.71 1017.49 1017.51 1018.06 1018.56 1018.33 1017.98 1017.61 1017.32 1017.27 1017.34 1017.12 1017.04 1017.07
1009.86 1010.54 1011.18 1011.73 1012.35 1012.70 1012.86 1013.14 1013.46 1013.59 1013.60 1013.53 1013.64 1013.67 1013.83 1014.09 1014.42 1014.71 1014.97 1015.42 1016.07 1016.66 1017.06 1017.40 1017.85 1017.94 1018.45 1018.36 1018.28 1018.34 1018.36 1018.36 1018.51 1018.83 1018.76 1018.42 1018.06 1017.76 1017.59 1017.34 1017.18 1017.11 1017.00
1009.37 1010.00 1010.65 1011.10 1011.54 1011.95 1012.35 1012.69 1013.01 1013.15 1013.30 1013.30 1013.48 1013.56 1013.76 1014.13 1014.52 1014.82 1015.32 1015.87 1016.55 1017.20 1017.63 1017.84 1018.07 1018.26 1018.62 1018.77 1018.82 1019.10 1019.12 1019.22 1019.23 1019.16 1019.05 1018.90 1018.76 1018.15 1017.92 1017.79 1017.41 1017.19 1017.09
1008.66 1009.42 1009.88 1010.31 1010.90 1011.46 1011.98 1012.32 1012.60 1012.73 1012.90 1013.01 1013.31 1013.42 1013.59 1014.04 1014.46 1014.89 1015.50 1016.29 1016.97 1017.65 1017.98 1018.13 1018.31 1018.48 1018.65 1018.78 1019.01 1019.38 1019.32 1019.49 1019.61 1019.69 1019.67 1019.47 1019.16 1018.70 1018.29 1017.85 1017.55 1017.24 1017.33
1007.96 1008.56 1009.31 1009.96 1010.51 1011.05 1011.51 1011.97 1012.24 1012.42 1012.51 1012.82 1013.09 1013.22 1013.41 1013.80 1014.31 1014.88 1015.49 1016.44 1017.21 1017.74 1018.27 1018.56 1018.74 1018.84 1019.13 1019.15 1019.17 1019.23 1019.28 1019.59 1019.72 1019.87 1020.07 1019.97 1019.52 1019.00 1018.46 1017.99 1017.60 1017.40 1017.68
1007.33 1008.14 1008.86 1009.52 1010.14 1010.63 1011.01 1011.54 1011.82 1012.06 1012.19 1012.58 1012.88 1013.03 1013.33 1013.72 1014.24 1014.96 1015.56 1016.35 1017.10 1017.70 1018.15 1018.63 1019.02 1019.19 1019.30 1019.53 1019.60 1019.64 1019.66 1019.80 1019.88 1020.00 1020.14 1020.04 1019.68 1019.09 1018.64 1018.08 1017.88 1017.84 1017.99
1007.17 1007.77 1008.38 1009.00 1009.57 1010.11 1010.64 1011.09 1011.33 1011.62 1011.83 1012.30 1012.69 1012.94 1013.42 1013.98 1014.46 1015.05 1015.63 1016.47 1017.19 1017.82 1018.30 1018.72 1019.10 1019.36 1019.42 1019.70 1019.94 1019.98 1020.02 1020.10 1020.15 1020.12 1020.06 1019.95 1019.60 1019.04 1018.71 1018.24 1018.15 1018.19 1017.96
1006.60 1007.30 1007.90 1008.40 1008.98 1009.57 1010.12 1010.52 1010.77 1011.15 1011.51 1011.91 1012.27 1012.84 1013.42 1014.26 1014.66 1015.12 1015.78 1016.67 1017.52 1018.18 1018.62 1018.97 1019.26 1019.48 1019.47 1019.62 1020.07 1020.54 1020.50 1020.33 1020.13 1020.06 1020.07 1019.91 1019.66 1019.14 1018.85 1018.54 1018.52 1018.52 1018.42
1006.08 1006.62 1007.25 1007.80 1008.38 1008.88 1009.37 1009.82 1010.14 1010.50 1010.98 1011.54 1012.10 1012.58 1013.10 1014.04 1014.74 1015.21 1015.80 1016.65 1017.60 1018.17 1018.60 1019.06 1019.33 1019.41 1019.44 1019.64 1019.98 1020.54 1020.74 1020.61 1020.31 1020.37 1020.54 1020.50 1020.09 1019.83 1019.51 1019.35 1019.16 1018.96 1018.64
1005.71 1006.17 1006.78 1007.21 1007.72 1008.16 1008.73 1009.19 1009.66 1010.21 1010.72 1011.28 1011.88 1012.59 1013.20 1013.84 1014.73 1015.04 1015.55 1016.47 1017.10 1017.92 1018.57 1019.03 1019.20 1019.51 1019.58 1019.75 1019.93 1020.21 1020.36 1020.34 1020.40 1020.57 1020.84 1020.97 1020.76 1020.64 1020.48 1020.17 1019.72 1019.50 1019.21
1006.23 1005.91 1006.31 1006.73 1007.16 1007.76 1008.25 1008.76 1009.22 1009.84 1010.52 1011.13 1011.79 1012.58 1013.26 1013.97 1014.37 1014.96 1015.59 1015.92 1016.71 1017.34 1018.11 1018.58 1018.84 1019.20 1019.58 1019.88 1020.06 1020.18 1020.23 1020.14 1020.56 1021.02 1021.22 1021.29 1021.32 1021.20 1021.07 1020.67 1020.40 1020.15 1019.78
1006.48 1006.26 1006.23 1006.57 1006.84 1007.12 1007.69 1008.39 1009.16 1009.68 1010.28 1010.98 1011.55 1012.26 1013.12 1013.87 1014.73 1015.18 1015.39 1015.92 1016.60 1017.25 1017.71 1018.18 1018.82 1019.20 1019.43 1019.72 1020.03 1020.18 1020.16 1020.27 1020.61 1020.90 1021.26 1021.28 1021.21 1021.20 1021.19 1021.09 1020.93 1020.94 1020.56
1007.02 1006.60 1006.18 1006.51 1006.90 1007.27 1007.76 1008.38 1008.76 1009.29 1009.85 1010.49 1011.22 1011.95 1012.86 1013.64 1014.64 1015.29 1015.58 1016.01 1016.52 1017.24 1017.90 1018.62 1018.94 1019.27 1019.54 1019.70 1019.97 1020.15 1020.16 1020.23 1020.50 1020.80 1021.19 1021.08 1021.20 1021.32 1021.42 1021.49 1021.42 1021.43 1021.31
1007.28 1006.97 1006.53 1006.56 1006.86 1007.42 1008.04 1008.66 1008.90 1008.82 1009.31 1009.93 1010.68 1011.44 1012.28 1013.05 1013.78 1014.40 1014.93 1015.72 1016.27 1016.88 1017.86 1018.63 1019.30 1019.56 1019.86 1019.96 1019.98 1020.14 1020.27 1020.39 1020.55 1020.68 1021.14 1021.20 1021.34 1021.45 1021.51 1021.48 1021.58 1022.00 1022.01
1007.39 1007.53 1006.52 1006.62 1006.84 1007.32 1008.19 1009.18 1009.49 1009.40 1009.43 1009.64 1010.02 1010.85 1011.68 1011.96 1012.86 1014.04 1014.74 1015.26 1016.03 1016.68 1017.64 1018.20 1018.79 1019.16 1019.51 1019.88 1020.17 1020.43 1020.44 1020.43 1020.51 1020.63 1021.02 1021.20 1021.48 1021.64 1021.93 1021.94 1022.05 1022.55 1022.66
1007.96 1008.37 1007.62 1006.94 1006.93 1007.29 1007.98 1008.67 1009.28 1009.85 1009.51 1009.66 1009.79 1010.42 1011.06 1011.65 1012.38 1013.48 1014.66 1015.26 1015.76 1016.40 1016.98 1017.61 1018.06 1018.55 1019.03 1019.40 1019.72 1020.02 1020.35 1020.28 1020.29 1020.51 1020.98 1021.38 1021.57 1021.86 1022.16 1022.61 1022.81 1023.16 1023.34
1008.78 1008.80 1007.75 1007.47 1007.29 1007.16 1007.37 1008.01 1008.48 1009.17 1009.68 1010.52 1010.84 1010.96 1011.56 1011.75 1012.72 1013.46 1014.57 1015.70 1016.82 1016.45 1016.54 1017.10 1017.55 1017.95 1018.50 1019.01 1019.31 1019.77 1019.98 1020.14 1020.30 1020.45 1020.85 1021.37 1021.62 1021.98 1022.40 1022.89 1023.20 1023.54 1023.90
1009.30 1009.04 1008.17 1007.86 1007.84 1007.81 1008.42 1008.80 1009.13 1009.21 1009.65 1010.42 1011.35 1011.69 1012.06 1013.15 1013.80 1013.81 1014.09 1014.96 1015.61 1015.87 1015.99 1016.40 1016.81 1017.31 1017.88 1018.25 1018.52 1018.96 1019.34 1019.77 1020.06 1020.47 1020.88 1021.22 1021.67 1021.98 1022.64 1022.93 1023.49 1023.84 1024.20
1009.80 1009.51 1009.35 1008.66 1007.82 1008.32 1008.94 1009.50 1009.61 1009.64 1007.67 1011.22 1011.73 1011.98 1012.49 1013.14 1014.22 1015.09 1014.08 1014.58 1015.04 1015.04 1015.48 1015.90 1016.47 1016.91 1017.28 1017.60 1018.06 1018.42 1018.97 1019.46 1019.85 1020.16 1020.59 1021.03 1021.48 1021.82 1022.53 1022.93 1023.48 1024.06 1024.51
1011.13 1010.44 1010.36 1010.15 1008.45 1007.81 1007.84 1009.27 1010.12 1010.35 1010.67 1012.88 1012.80 1012.98 1012.61 1012.34 1012.83 1013.94 1013.89 1014.25 1014.97 1014.89 1015.14 1015.57 1015.96 1016.20 1016.59 1016.96 1017.42 1017.89 1018.35 1018.80 1019.18 1019.70 1020.16 1020.65 1021.19 1021.90 1022.22 1022.68 1023.33 1024.10 1024.62
1011.60 1011.16 1011.38 1011.24 1010.04 1008.77 1008.29 1007.57 1009.82 1010.21 1011.12 1011.94 1012.84 1012.87 1013.13 1012.98 1013.30 1013.98 1013.70 1013.98 1014.48 1014.66 1014.71 1015.01 1015.56 1015.66 1015.77 1016.15 1016.54 1017.04 1017.56 1018.12 1018.59 1019.06 1019.67 1020.21 1020.84 1021.52 1022.02 1022.54 1023.21 1023.87 1024.64
1012.46 1012.37 1012.07 1011.38 1010.57 1010.30 1009.94 1008.02 1008.15 1011.25 1012.06 1012.99 1013.56 1013.83 1013.61 1013.32 1013.41 1013.85 1013.51 1013.99 1014.40 1014.38 1014.46 1014.53 1014.89 1015.12 1015.14 1015.20 1015.41 1015.77 1016.49 1016.95 1017.38 1018.04 1018.86 1019.56 1020.36 1021.16 1021.76 1022.30 1022.86 1023.48 1024.15
1013.50 1012.95 1012.46 1012.24 1012.16 1011.74 1011.76 1011.37 1007.61 1012.32 1014.81 1014.97 1015.29 1015.23 1014.75 1014.67 1014.67 1014.37 1013.90 1014.38 1014.64 1014.54 1014.47 1014.53 1014.53 1014.46 1014.35 1014.69 1015.02 1015.18 1015.45 1016.00 1016.58 1017.22 1017.77 1018.72 1019.57 1020.34 1021.22 1021.87 1022.37 1022.68 1023.29
1014.04 1013.72 1013.62 1013.81 1013.64 1013.57 1013.25 1012.75 1013.12 1014.32 1015.52 1016.12 1016.58 1016.89 1016.54 1016.16 1015.76 1015.79 1015.32 1014.84 1015.09 1014.42 1014.66 1014.69 1014.82 1014.52 1014.34 1014.21 1014.37 1014.80 1014.97 1015.56 1015.99 1016.56 1017.38 1017.95 1018.66 1019.43 1020.24 1020.98 1021.66 1022.22 1022.76
1015.44 1015.29 1015.14 1015.04 1014.89 1014.90 1014.78 1014.97 1015.20 1015.96 1016.45 1016.67 1016.97 1017.46 1017.48 1017.48 1017.36 1016.87 1016.04 1015.74 1016.11 1014.94 1015.52 1015.15 1014.94 1014.50 1014.57 1014.54 1014.38 1014.04 1014.56 1014.97 1015.54 1015.98 1016.56 1017.28 1017.96 1018.79 1019.43 1020.09 1020.68 1021.29 1021.94
Thickness
5838 5835 5830 5828 5826 5825 5821 5819 5819 5820 5819 5818 5819 5817 5815 5811 5808 5803 5797 5790 5783 5774 5766 5759 5748 5740 5730 5722 5714 5705 5696 5683 5663 5654 5648 5644 5638 5632 5625 5617 5611 5607 5602
5839 5837 5833 5832 5829 5826 5824 5823 5821 5820 5821 5819 5819 5819 5816 5813 5809 5802 5795 5788 5779 5770 5762 5755 5744 5737 5726 5718 5711 5702 5695 5684 5668 5654 5644 5640 5634 5628 5621 5613 5608 5602 5596
5840 5838 5835 5833 5829 5827 5827 5826 5824 5822 5822 5823 5821 5819 5816 5813 5808 5802 5797 5788 5778 5768 5760 5751 5741 5733 5722 5715 5707 5700 5690 5681 5667 5652 5642 5636 5631 5624 5618 5612 5605 5598 5592
5840 5839 5835 5835 5833 5832 5830 5828 5826 5825 5823 5823 5822 5821 5818 5814 5808 5803 5795 5787 5776 5765 5756 5749 5741 5732 5721 5712 5704 5694 5684 5675 5664 5651 5641 5632 5625 5622 5615 5607 5601 5595 5588
5842 5839 5838 5838 5836 5834 5830 5829 5828 5827 5826 5825 5823 5822 5821 5816 5811 5804 5796 5785 5775 5763 5755 5748 5740 5732 5724 5715 5704 5692 5684 5674 5662 5650 5639 5629 5623 5618 5613 5607 5600 5593 5583
5845 5843 5841 5837 5835 5833 5831 5829 5828 5828 5827 5825 5823 5823 5821 5818 5812 5805 5797 5785 5774 5765 5755 5746 5740 5733 5723 5715 5707 5697 5687 5675 5664 5652 5639 5628 5622 5616 5611 5606 5599 5592 5576
5846 5844 5840 5838 5834 5832 5832 5829 5829 5827 5828 5824 5824 5824 5821 5817 5812 5804 5797 5788 5776 5767 5758 5748 5740 5732 5723 5714 5706 5698 5689 5679 5669 5656 5644 5632 5621 5617 5610 5604 5595 5584 5573
5843 5841 5841 5839 5835 5833 5832 5829 5829 5828 5827 5825 5824 5824 5820 5815 5810 5804 5797 5787 5777 5767 5759 5750 5741 5731 5724 5714 5703 5696 5687 5678 5668 5660 5650 5639 5628 5622 5612 5603 5592 5583 5576
5846 5842 5841 5840 5836 5834 5831 5830 5831 5829 5827 5826 5826 5823 5819 5811 5806 5802 5796 5785 5774 5765 5758 5750 5741 5733 5726 5718 5706 5695 5686 5678 5670 5662 5652 5642 5631 5621 5611 5603 5591 5582 5575
5848 5846 5844 5842 5838 5836 5835 5832 5832 5832 5829 5827 5824 5824 5820 5812 5804 5801 5796 5787 5774 5765 5757 5751 5743 5736 5729 5721 5709 5697 5687 5680 5672 5664 5655 5642 5633 5622 5610 5601 5591 5585 5576
5848 5848 5845 5843 5840 5840 5837 5835 5833 5830 5828 5825 5823 5820 5818 5813 5804 5801 5797 5788 5778 5767 5757 5750 5745 5739 5732 5723 5713 5703 5695 5687 5677 5666 5656 5645 5634 5622 5610 5600 5592 5584 5576
5844 5846 5845 5843 5841 5839 5836 5835 5833 5830 5825 5822 5819 5816 5814 5810 5806 5800 5795 5792 5781 5772 5761 5754 5748 5741 5732 5723 5715 5706 5698 5692 5679 5667 5657 5648 5639 5627 5615 5603 5593 5586 5578
5835 5840 5841 5840 5840 5840 5836 5833 5829 5828 5824 5819 5817 5814 5810 5808 5801 5796 5795 5789 5781 5773 5765 5758 5749 5741 5733 5725 5717 5709 5702 5693 5683 5674 5662 5654 5646 5635 5622 5609 5598 5589 5582
5823 5830 5835 5835 5833 5834 5833 5831 5830 5827 5823 5819 5816 5813 5809 5805 5799 5795 5792 5788 5781 5773 5764 5753 5747 5740 5733 5725 5718 5710 5704 5696 5689 5679 5669 5662 5653 5644 5631 5618 5606 5595 5586
5814 5821 5826 5828 5827 5826 5826 5822 5827 5827 5825 5820 5818 5815 5808 5805 5804 5801 5795 5788 5782 5775 5762 5752 5743 5736 5730 5724 5717 5711 5703 5697 5691 5684 5674 5667 5659 5651 5641 5630 5616 5602 5592
5807 5809 5820 5820 5821 5821 5815 5809 5807 5811 5815 5820 5820 5816 5813 5815 5808 5799 5792 5788 5779 5772 5764 5754 5746 5738 5731 5723 5716 5707 5702 5698 5692 5687 5678 5672 5665 5657 5648 5637 5625 5610 5601
5795 5793 5803 5813 5817 5814 5811 5810 5808 5805 5808 5810 5813 5813 5812 5809 5804 5798 5788 5782 5777 5773 5765 5756 5751 5742 5733 5725 5719 5711 5703 5699 5696 5690 5682 5674 5669 5661 5653 5642 5630 5619 5609
5778 5779 5796 5802 5805 5810 5813 5810 5808 5804 5804 5801 5796 5801 5800 5801 5795 5790 5782 5774 5766 5769 5767 5759 5752 5745 5737 5728 5721 5712 5704 5699 5696 5691 5686 5678 5672 5666 5658 5649 5638 5627 5618
5763 5770 5785 5792 5795 5797 5795 5794 5793 5789 5786 5786 5784 5786 5787 5783 5778 5779 5780 5775 5770 5769 5766 5760 5755 5748 5739 5732 5725 5717 5709 5702 5697 5691 5685 5681 5674 5670 5660 5655 5646 5635 5628
5749 5758 5764 5776 5787 5785 5782 5779 5773 5766 5753 5755 5768 5775 5777 5777 5772 5766 5773 5771 5768 5770 5765 5761 5754 5747 5741 5735 5726 5719 5711 5704 5698 5693 5687 5682 5677 5673 5665 5659 5651 5643 5633
5730 5742 5747 5752 5771 5775 5776 5760 5756 5755 5755 5729 5740 5748 5761 5776 5775 5765 5767 5766 5760 5764 5762 5760 5754 5749 5743 5738 5729 5721 5714 5708 5703 5696 5689 5685 5680 5673 5669 5664 5655 5648 5641
5716 5726 5728 5734 5750 5761 5767 5772 5754 5751 5721 5710 5725 5737 5745 5758 5761 5756 5760 5758 5758 5758 5761 5760 5753 5750 5747 5741 5735 5726 5719 5713 5706 5700 5693 5688 5682 5676 5671 5666 5659 5651 5645
5700 5704 5711 5723 5735 5742 5746 5762 5764 5734 5707 5706 5715 5724 5736 5747 5751 5749 5754 5751 5750 5753 5755 5757 5754 5750 5747 5744 5741 5735 5725 5720 5715 5708 5698 5691 5685 5678 5673 5668 5663 5658 5650
5681 5689 5698 5704 5707 5717 5720 5725 5756 5719 5694 5694 5696 5707 5717 5726 5730 5737 5743 5741 5740 5742 5746 5748 5749 5749 5748 5744 5740 5737 5733 5726 5720 5713 5707 5696 5690 5683 5675 5670 5666 5663 5659
5668 5675 5681 5684 5686 5692 5698 5702 5703 5699 5689 5687 5689 5693 5700 5703 5709 5711 5719 5726 5726 5737 5738 5738 5738 5742 5742 5742 5740 5735 5734 5728 5723 5717 5709 5704 5695 5689 5682 5676 5669 5665 5660
5647 5652 5657 5665 5670 5671 5676 5677 5681 5676 5672 5676 5681 5683 5684 5685 5685 5690 5700 5707 5706 5723 5723 5725 5727 5734 5735 5733 5734 5737 5732 5729 5724 5719 5713 5706 5700 5691 5685 5680 5674 5669 5664